2018-097C (43753 NORAD) Tracking and Keplerian Element Data

This shows tracking and keplerian element data for the satellite.

Feedback or suggestion? Click here.




ElementValue
Catalog43753
Name2018-097C
Epoch Orbit373
Epoch Day364.12369232
Epoch Year2018
RAAN114.3959
Inclination82.5146
Eccentricity0.0014647
Argument of Perigee252.0905
Mean Anonmoly107.858
Mean Motion12.42226947
Decay Rate4E-07
L11 43753U 18097C 18364.12369232 .00000040 00000-0 21691-3 0 9993
L22 43753 82.5146 114.3959 0014647 252.0905 107.8580 12.42226947 3738

Live tracking and technical data element details for 2018-097C (NORAD 43753). 2018-097C can be tracked NOW for your location showing map with azimuth and elevation plus other details from your city location.

Track the satellite on the map from your city or location and see movement details for azimuth, elevation, latitude, longitude, range, height, and movement on the map or in text.







IsCatalogInMostPopularTable: catalog: 43753, numindb: 113
Update: records affected: 1



GetName: 43753 2018-097C

Hit Count: updated at: Mon, 22 Jul 2019 04:00:02 GMT